DELTA 1 DEB, 7043

Orbit data source: Space-Track

DELTA 1 DEB, 7043 is space debris in SSO originally from a launch on Tue, 06 Nov 1973 UTC launched from the Air Force Western Test Range (AFWTR). Debris objects in space refer to the collection of defunct objects orbiting the Earth. Examples of debris include non-operational satellites, rocket bodies, and fragments generated from explosions, collisions, or faulty payload assembly.

Loading next visibility...
Identifier
7043, 1973-086AK
Orbit
SSO
Country
Flag of USUS
Related business
Manufacturer
Unknown
Mission
Spacecraft
Bus & Motor
Unknown
Mass
Unknown
Launch date (UTC)
1973-11-06 (52 years ago)
Launch vehicle
Unknown
Launch site
Air Force Western Test Range (AFWTR)
Object type
Payload
Rocket body
Debris
Shape & HBR
Unknown shape, 0.2 m
Radar Cross Section
Small (<0.1 m²)

Expand to show TLE details & history
Last TLE update: 10 hours ago

TLE from 10 hours ago
0 DELTA 1 DEB
1 07043U 73086AK  26123.42498562  .00000038  00000-0  33385-3 0  9998
2 07043 102.1253 183.8745 0215430 328.7180  42.0066 12.85396339458835
Epoch: 2026-05-03T10:11Z
TLE epoch observation values (Epoch: 2026-05-03T10:11:58.757Z)
Latitude
12.09185°
Longitude
166.92631°
Altitude
1,200.097 km
Speed
7.312 km/s
True Right ascension
12h 04m 59s
True Declination
12° 01' 33"
Sunlit
Object was in full shadow at epoch
Visualization orbit readout
Latitude
Unknown
Longitude
Unknown
Altitude
Unknown
Speed
Unknown
Apparent Right ascension
Unknown
Apparent Declination
Unknown
Sunlit
N/A
Visualization observer readout
Local Sidereal Time
03:47:55
Azimuth
Unknown
Elevation
Unknown
Doppler factor
Unknown
Orbital elements
Apogee altitude
1,483.155 km
Perigee altitude
1,151.587 km
Semi-major axis
7,695.508 km
Eccentricity
0.02154
Inclination
102.1253°
RAAN
183.8745°
Arg. of periapsis
328.718°
True anomaly
43.69212°
Mean anomaly
42.0066°
Eccentric anomaly
42.84598°
Mean motion
3.21505 °/min
Orbital period
111.97 mins
BSTAR
0.00033385
Loading maneuver chart data...
Computing Atmospheric mass density...
Loading historical data...
Loading historical data...
Loading historical data...
Loading historical data...
Loading historical data...
Loading historical data...
Loading historical data...

Documentation

Showing up to 5 results
|